Location: Ambrosina
(19.9365°S, 43.9833°W)
Time: 00:21:31
(UTC+00:00)

Atlas Centaur 2 - Pass Details

Date: 11 May 2021
Orbit: 459 x 1308 km, 30.4° (Epoch: 20 June)

Event Time Altitude Azimuth Distance (km) Brightness Sun altitude
Rises 21:33:25 0° 251° (WSW) 3,320 6.3 -15.4°
Reaches altitude 10° 21:35:58 10° 241° (WSW) 2,523 5.3 -16.0°
Maximum altitude 21:41:32 34° 177° (S) 1,621 3.5 -17.2°
Enters shadow 21:45:01 23° 132° (SE) 2,165 3.8 -18.0°
